Location: Chaumontel
(49.1247°N, 2.4324°E)
Time: 01:25:49
(UTC+00:00)

IRIDIUM 103 - Pass Details

Date: 23 May 2025
Orbit: 775 x 779 km, 86.4° (Epoch: 12 June)

Event Time Altitude Azimuth Distance (km) Brightness Sun altitude
Exits shadow 00:21:30 32° 150° (SSE) 1,313 5.1 -19.9°
Maximum altitude 00:23:43 56° 88° (E) 926 4.7 -19.8°
Drops below altitude 10° 00:28:49 10° 11° (NNE) 2,342 8.1 -19.7°
Sets 00:31:13 0° 8° (N) 3,274 9.2 -19.6°
